#timestamp,LO_Frequency,Hit,StdDev 
1574481615.7,286047002.8,P
1574481635.6,286046998.1,Y
1574481655.4,286046999.0,P
1574481675.3,286046999.0,N
1574481695.1,286046998.7,N
1574481715.8,286046996.5,N
1574481735.7,286046997.8,N
1574481755.5,286046995.0,Y
1574481775.4,286046999.5,P
1574481795.2,286046999.0,P
1574481815.0,286046998.9,P
1574481815.9,286046998.9,Y
1574481835.8,286046998.1,P
1574481855.6,286047000.7,N
1574481875.4,286047002.5,N
1574481895.3,286046999.8,N
1574481915.1,286047000.1,N
1574481935.9,286047000.1,N
1574481955.7,286047000.3,N
1574481975.5,286047001.2,N
1574481995.4,286047001.1,N
1574482015.2,286047000.6,N
1574482035.0,286047000.7,N
1574482035.9,286047000.7,N
1574482055.8,286046998.6,N
1574482075.6,286046998.2,N
1574482095.5,286046999.5,N
1574482115.3,286046999.1,N
1574482135.1,286047000.5,N
1574482155.9,286047001.1,N
1574482175.7,286047002.2,N
1574482195.5,286047002.5,N
1574482215.4,286047001.7,N
1574482235.2,286047001.4,N
1574482255.1,286047001.8,N
1574482256.0,286047001.8,N
1574482275.8,286047001.3,N
1574482295.6,286047001.5,N
1574482315.5,286047002.2,N
1574482335.3,286047001.7,N
1574482355.1,286047002.5,N
1574482375.9,286047003.9,Y
1574482395.7,286047000.7,P
1574482415.6,286047002.8,P
1574482435.4,286047000.6,N
1574482455.2,286047000.3,N
1574482475.1,286047001.1,N
1574482476.0,286047001.1,N
1574482495.8,286047000.5,N
1574482515.7,286047002.3,Y
1574482535.5,286046998.8,P
1574482555.3,286046999.6,N
1574482575.2,286046997.3,P
1574482595.9,286046997.8,N
1574482615.7,286046996.6,N
1574482635.6,286046999.0,N
1574482655.4,286047001.1,N
1574482675.3,286046998.8,N
1574482695.1,286046996.6,N
1574482696.0,286046996.6,N
1574482715.8,286046999.1,N
1574482735.7,286046998.9,N
1574482755.5,286046998.9,N
1574482775.3,286046998.5,N
1574482795.2,286046998.2,N
1574482815.0,286046998.6,N
1574482815.9,286046998.6,N
1574482835.8,286046998.1,N
1574482855.6,286046998.7,N
1574482875.4,286046999.4,N
1574482895.3,286046998.5,N
1574482915.1,286046999.5,N
1574482935.8,286046999.4,N
1574482955.7,286047002.5,N
1574482975.5,286046999.8,N
1574482995.4,286047002.4,N
1574483015.2,286047002.5,N
1574483035.0,286047002.7,N
1574483035.9,286047002.7,N
1574483055.8,286047002.6,N
1574483075.6,286047001.7,N
1574483095.4,286047002.3,N
1574483115.3,286047000.1,N
1574483135.1,286047001.5,N
1574483155.9,286047001.4,N
1574483175.7,286047001.9,N
1574483195.5,286046999.8,N
1574483215.4,286047002.5,N
1574483235.2,286047001.7,N
1574483255.0,286047001.8,N
1574483255.9,286047001.8,N
1574483275.8,286047005.9,Y
1574483295.6,286047003.1,P
1574483315.5,286047003.8,N
1574483335.3,286047003.5,N
1574483355.1,286047004.3,Y
1574483375.9,286047000.3,P
1574483395.7,286047000.1,N
1574483415.5,286047000.3,N
1574483435.4,286046999.7,N
1574483455.2,286046999.9,N
1574483475.1,286047000.6,N
1574483476.0,286047000.6,N
1574483495.8,286047001.0,N
1574483515.6,286047002.6,Y
1574483535.5,286047000.7,P
1574483555.3,286046998.8,P
1574483575.1,286046996.5,P
1574483595.9,286046999.2,N
1574483615.7,286046999.2,N
1574483635.6,286046997.4,N
1574483655.4,286046997.1,N
1574483675.2,286046995.4,Y
1574483695.1,286046999.0,P
1574483696.0,286046999.0,P
1574483715.8,286046996.6,P
1574483735.7,286046999.2,N
1574483755.5,286046999.1,N
1574483775.3,286047001.1,N
1574483795.2,286046999.5,N
1574483815.0,286046996.9,N
1574483815.9,286046996.9,N
1574483835.7,286046999.4,N
1574483855.6,286046999.1,N
1574483875.4,286046998.8,N
1574483895.3,286046996.8,N
1574483915.1,286046999.5,N
1574483916.0,286046999.5,N
1574483935.8,286046995.2,Y
1574483955.7,286046998.6,P
1574483975.5,286047001.0,P
1574483995.3,286046998.2,N
1574484015.2,286046998.1,N
1574484035.0,286046998.6,N
1574484035.9,286046998.6,N
1574484055.8,286047001.2,N
1574484075.6,286047001.0,N
1574484095.4,286046998.1,N
1574484115.3,286046998.3,N
1574484135.1,286046998.2,N
1574484155.8,286046998.8,N
1574484175.7,286046999.1,N
1574484195.5,286046998.9,N
1574484215.4,286047000.4,N
1574484235.2,286047001.0,N
1574484255.0,286047000.7,N
1574484255.9,286047000.7,N
1574484275.8,286047001.2,N
1574484295.6,286046998.6,N
1574484315.4,286046998.3,N
1574484335.3,286046999.9,N
1574484355.1,286047000.8,N
1574484375.9,286047000.4,N
1574484395.7,286047000.9,N
1574484415.5,286047002.8,N
1574484435.4,286046999.8,N
1574484455.2,286046999.7,N
1574484475.0,286047001.0,N
1574484475.9,286047001.0,N
1574484495.8,286047000.6,N
1574484515.6,286046999.7,N
1574484535.5,286047002.8,N
1574484555.3,286047000.4,N
1574484575.1,286047000.0,N
1574484595.9,286047002.3,N
1574484615.7,286047002.6,N
1574484635.5,286047000.1,N
1574484655.4,286047002.7,N
1574484675.2,286047002.4,N
1574484695.1,286047000.2,N
1574484696.0,286047000.2,N
1574484715.8,286047002.3,N
1574484735.6,286047001.7,N
1574484755.5,286047000.3,N
1574484775.3,286047000.6,N
1574484795.1,286047000.4,N
1574484815.9,286047000.9,N
1574484835.7,286047001.1,N
1574484855.6,286046998.6,N
1574484875.4,286046999.2,N
1574484895.2,286046998.2,N
1574484915.1,286046996.9,N
1574484916.0,286046996.9,N
1574484935.8,286046997.0,N
1574484955.6,286046997.4,N
1574484975.5,286046997.9,N
1574484995.3,286047000.8,N
1574485015.2,286047000.7,N
1574485035.9,286047000.0,N
1574485055.7,286047000.2,N
1574485075.6,286047000.7,N
1574485095.4,286047000.7,N
1574485115.2,286047000.8,N
1574485135.1,286047000.4,N
1574485136.0,286047000.4,N
1574485155.8,286046998.8,N
1574485175.7,286046998.2,N
1574485195.5,286046999.5,N
